Fort Knox, KY

9:03 PM EDT on August 18, 2017 (GMT -0400)
Godman Army Air Field

Weather History for KFTK - October, 2013

Change the Weather History Date:

Tuesday, October 1, 2013

  Actual Average Record
Temperature  
Mean Temperature 68 °F -  
Max Temperature 80 °F 72 °F 82 °F (2005)
Min Temperature 56 °F 49 °F 39 °F (2003)
Cooling Degree Days 3    
Growing Degree Days 18 (Base 50)    
Moisture  
Dew Point 60 °F    
Average Humidity 94    
Maximum Humidity 100    
Minimum Humidity 58    
Precipitation  
Precipitation 0.00 in - - ()
Sea Level Pressure  
Sea Level Pressure 30.04 in    
Wind  
Wind Speed 1 mph (South)    
Max Wind Speed 9 mph    
Max Gust Speed -    
Visibility 5 miles    
Events Fog    
Averages and records for this station are not official NWS values.
T = Trace of Precipitation, MM = Missing Value Source: NWS Daily Summary

Daily Weather History Graph

Daily Weather History Graph

Search for Another Location

Airport or City:

Trip Planner

Search our weather history database for the weather conditions in past years. The results will help you decide how hot, cold, wet, or windy it might be!

Date:

Astronomy

Oct. 01, 2013 Rise Set
Actual Time 7:39 AM EDT 7:26 PM EDT
Civil Twilight 7:13 AM EDT 7:52 PM EDT
Nautical Twilight 6:43 AM EDT 8:23 PM EDT
Astronomical Twilight 6:12 AM EDT 8:53 PM EDT
Moon 4:16 AM EDT (10/1) 5:27 PM EDT (10/1)
Length of Visible Light 12h 39m
Length of Day
11h 46m
Waning Crescent, 12% of the Moon is Illuminated
Oct 1
Waning Crescent
Oct 4
New
Oct 11
First Quarter
Oct 18
Full
Oct 26
Last Quarter

Hourly Weather History & Observations

Time (EDT) Temp. Heat Index Dew Point Humidity Pressure Visibility Wind Dir Wind Speed Gust Speed Precip Events Conditions
12:08 AM 59.0 °F - 59.0 °F 100% 30.02 in 1.5 mi Calm Calm - N/A   Clear
12:13 AM 59.0 °F - 59.0 °F 100% 30.03 in 1.8 mi South 2.3 mph - N/A   Clear
12:18 AM 59.0 °F - 59.0 °F 100% 30.03 in 1.8 mi South 2.3 mph - N/A   Clear
12:23 AM 59.0 °F - 59.0 °F 100% 30.03 in 1.2 mi South 2.3 mph - N/A   Partly Cloudy
12:33 AM 59.0 °F - 59.0 °F 100% 30.03 in 2.0 mi Calm Calm - N/A   Partly Cloudy
12:43 AM 59.0 °F - 59.0 °F 100% 30.03 in 4.0 mi Calm Calm - N/A   Clear
12:45 AM 59.0 °F - 59.0 °F 100% 30.03 in 5.0 mi Calm Calm - N/A   Light Drizzle
12:51 AM 60.8 °F - 60.8 °F 100% 30.03 in 7.0 mi South 1.2 mph - N/A   Clear
12:58 AM 60.1 °F - 60.1 °F 100% 30.03 in 9.0 mi South 1.2 mph - 0.00 in   Clear
1:58 AM 60.1 °F - 59.9 °F 99% 30.03 in 10.0 mi Calm Calm - N/A   Clear
2:28 AM 59.0 °F - 59.0 °F 100% 30.03 in 1.5 mi Calm Calm - N/A   Clear
2:38 AM 59.0 °F - 59.0 °F 100% 30.03 in 1.8 mi Calm Calm - N/A   Clear
2:43 AM 59.0 °F - 59.0 °F 100% 30.03 in 2.5 mi Calm Calm - N/A   Clear
2:48 AM 59.0 °F - 59.0 °F 100% 30.03 in 3.0 mi East 2.3 mph - N/A   Clear
2:58 AM 59.0 °F - 59.0 °F 100% 30.03 in 9.0 mi ESE 2.3 mph - N/A   Clear
3:28 AM 57.2 °F - 57.2 °F 100% 30.03 in 1.5 mi East 2.3 mph - N/A   Clear
3:33 AM 59.0 °F - 59.0 °F 100% 30.03 in 2.0 mi East 2.3 mph - N/A   Clear
3:38 AM 59.0 °F - 59.0 °F 100% 30.03 in 7.0 mi East 2.3 mph - N/A   Partly Cloudy
3:58 AM 58.3 °F - 58.3 °F 100% 30.02 in 10.0 mi Calm Calm - N/A   Partly Cloudy
4:28 AM 57.2 °F - 57.2 °F 100% 30.02 in 1.8 mi Calm Calm - N/A   Clear
4:33 AM 57.2 °F - 57.2 °F 100% 30.02 in 0.5 mi Calm Calm - N/A Fog Fog
4:38 AM 57.2 °F - 57.2 °F 100% 30.02 in 0.2 mi SW 1.2 mph - N/A Fog Fog
4:43 AM 57.2 °F - 57.2 °F 100% 30.02 in 0.5 mi Calm Calm - N/A Fog Fog
4:48 AM 57.2 °F - 57.2 °F 100% 30.02 in 0.8 mi Calm Calm - N/A   Clear
4:58 AM 58.3 °F - 58.3 °F 100% 30.03 in 0.8 mi Calm Calm - N/A   Clear
5:03 AM 59.0 °F - 59.0 °F 100% 30.03 in 1.5 mi Calm Calm - N/A   Clear
5:08 AM 59.0 °F - 59.0 °F 100% 30.03 in 2.0 mi Calm Calm - N/A   Clear
5:13 AM 57.2 °F - 57.2 °F 100% 30.03 in 1.8 mi Calm Calm - N/A   Clear
5:18 AM 57.2 °F - 57.2 °F 100% 30.03 in 1.2 mi Calm Calm - N/A   Clear
5:28 AM 57.2 °F - 57.2 °F 100% 30.04 in 1.0 mi Calm Calm - N/A   Clear
5:33 AM 57.2 °F - 57.2 °F 100% 30.04 in 0.5 mi Calm Calm - N/A Fog Fog
5:38 AM 57.2 °F - 57.2 °F 100% 30.04 in 0.8 mi Calm Calm - N/A   Scattered Clouds
5:43 AM 57.2 °F - 57.2 °F 100% 30.04 in 1.8 mi Calm Calm - N/A   Scattered Clouds
5:48 AM 57.2 °F - 57.2 °F 100% 30.04 in 1.2 mi Calm Calm - N/A   Mostly Cloudy
5:53 AM 57.2 °F - 57.2 °F 100% 30.05 in 0.8 mi Calm Calm - N/A   Mostly Cloudy
5:58 AM 56.8 °F - 56.8 °F 100% 30.05 in 1.0 mi Calm Calm - N/A   Mostly Cloudy
6:03 AM 57.2 °F - 57.2 °F 100% 30.05 in 1.5 mi Calm Calm - N/A   Overcast
6:08 AM 57.2 °F - 57.2 °F 100% 30.05 in 2.5 mi Calm Calm - N/A   Overcast
6:13 AM 59.0 °F - 59.0 °F 100% 30.05 in 7.0 mi Calm Calm - N/A   Overcast
6:55 AM 59.4 °F - 59.4 °F 100% 30.06 in 6.0 mi Calm Calm - N/A   Overcast
7:55 AM 60.8 °F - 60.8 °F 100% 30.07 in 6.0 mi SE 2.3 mph - N/A   Mostly Cloudy
8:58 AM 62.8 °F - 62.6 °F 99% 30.09 in 10.0 mi Calm Calm - N/A   Scattered Clouds
9:58 AM 65.8 °F - 62.4 °F 89% 30.10 in 10.0 mi South 5.8 mph - N/A   Mostly Cloudy
10:58 AM 72.3 °F - 63.0 °F 72% 30.10 in 10.0 mi South 9.2 mph - N/A   Scattered Clouds
11:58 AM 72.9 °F - 63.9 °F 73% 30.09 in 10.0 mi SSW 5.8 mph - N/A   Mostly Cloudy
12:28 PM 73.4 °F - 64.4 °F 73% 30.09 in 10.0 mi SW 5.8 mph - N/A   Overcast
12:58 PM 73.6 °F - 64.8 °F 74% 30.08 in 10.0 mi SW 6.9 mph - N/A   Overcast
1:58 PM 78.3 °F - 65.3 °F 64% 30.06 in 10.0 mi Variable 5.8 mph - N/A   Mostly Cloudy
2:58 PM 78.8 °F - 65.1 °F 63% 30.05 in 10.0 mi SW 6.9 mph - N/A   Mostly Cloudy
3:58 PM 80.1 °F 81.7 °F 64.0 °F 58% 30.04 in 10.0 mi SSW 8.1 mph - N/A   Mostly Cloudy
4:58 PM 78.6 °F - 64.2 °F 61% 30.04 in 10.0 mi WSW 4.6 mph - N/A   Clear
5:58 PM 78.3 °F - 64.9 °F 63% 30.03 in 9.0 mi West 3.5 mph - N/A   Scattered Clouds
6:58 PM 76.3 °F - 65.7 °F 70% 30.04 in 10.0 mi SSW 3.5 mph - N/A   Clear
7:58 PM 69.1 °F - 66.2 °F 91% 30.04 in 10.0 mi Calm Calm - N/A   Clear
8:58 PM 67.8 °F - 65.5 °F 92% 30.05 in 10.0 mi Calm Calm - N/A   Partly Cloudy
9:58 PM 65.3 °F - 64.4 °F 97% 30.06 in 10.0 mi Calm Calm - N/A   Clear
10:58 PM 64.6 °F - 64.0 °F 98% 30.07 in 10.0 mi Calm Calm - N/A   Clear
11:33 PM 64.4 °F - 62.6 °F 94% 30.07 in 1.8 mi Calm Calm - N/A   Clear
11:38 PM 64.4 °F - 64.4 °F 100% 30.07 in 1.8 mi Calm Calm - N/A   Clear
11:43 PM 64.4 °F - 64.4 °F 100% 30.07 in 4.0 mi Calm Calm - N/A   Clear
11:58 PM 64.0 °F - 64.0 °F 100% 30.07 in 10.0 mi Calm Calm - N/A   Clear